Location: *
(58.4167°N, 22.5000°E)
Time: 19:42:49
(UTC+00:00)

Cosmos 1766 - Pass Details

Date: 22 September 2019
Orbit: 521 x 546 km, 82.5° (Epoch: 22 October)

Event Time Altitude Azimuth Distance (km) Brightness Sun altitude
Exits shadow 18:19:08 - 176° (S) 2,131 6.0 -14.6°
Reaches altitude 10° 18:19:59 10° 174° (S) 1,790 5.6 -14.7°
Maximum altitude 18:23:49 54° 97° (E) 653 3.3 -15.1°
Drops below altitude 10° 18:27:39 10° 20° (NNE) 1,790 6.0 -15.6°
Sets 18:29:50 0° 16° (NNE) 2,681 7.0 -15.8°
